Deptford, New Jersey, United States
Lat: 39.83N, Lon: 75.13W
Wx Zone: NJZ017
Local Info
Past Weather Observations for Friday, September 26, 2014

NOTE: This archive is for the closest National Weather Service station to Deptford. Information may differ from the station used for current weather conditions.

Click here for Long-term Archive

Time Weather Temperature Dewpoint Humidity Pressure Winds Precip Visibility
23:54
Clear
63°F / 17°C 52°F / 11°C 68% 30.21 in
(1023 mb)
Calm - 10SM
22:54
Clear
63°F / 17°C 55°F / 13°C 77% 30.21 in
(1023 mb)
Calm - 10SM
21:54
Partly Cloudy
64°F / 18°C 54°F / 12°C 68% 30.21 in
(1023 mb)
W 4.6 mph
(W 7 kph)
- 10SM
20:54
Partly Cloudy
70°F / 21°C 52°F / 11°C 53% 30.18 in
(1022 mb)
NW 3.5 mph
(NW 6 kph)
- 10SM
19:54
Partly Cloudy
70°F / 21°C 52°F / 11°C 53% 30.18 in
(1022 mb)
E 4.6 mph
(E 7 kph)
- 10SM
18:54
Partly Cloudy
72°F / 22°C 52°F / 11°C 50% 30.18 in
(1022 mb)
NNW 5.8 mph
(NNW 9 kph)
- 10SM
17:54
Partly Cloudy
73°F / 23°C 52°F / 11°C 47% 30.18 in
(1022 mb)
NNW 6.9 mph
(NNW 11 kph)
- 10SM
16:54
Partly Cloudy
75°F / 24°C 52°F / 11°C 44% 30.18 in
(1022 mb)
NE 6.9 mph
(NE 11 kph)
- 10SM
15:54
Partly Cloudy
79°F / 26°C 48°F / 9°C 34% 30.18 in
(1022 mb)
N 8.1 mph
(N 13 kph)
- 10SM
14:54
Partly Cloudy
79°F / 26°C 50°F / 10°C 37% 30.18 in
(1022 mb)
N 6.9 mph
(N 11 kph)
- 10SM
13:54
Partly Cloudy
77°F / 25°C 50°F / 10°C 39% 30.18 in
(1022 mb)
N 8.1 mph
(N 13 kph)
- 10SM
12:54
Partly Cloudy
75°F / 24°C 52°F / 11°C 44% 30.21 in
(1023 mb)
NE 6.9 mph
(NE 11 kph)
- 10SM
11:54
Partly Cloudy
73°F / 23°C 52°F / 11°C 47% 30.21 in
(1023 mb)
NE 10.4 mph
(NE 17 kph)
- 10SM
10:54
Partly Cloudy
72°F / 22°C 54°F / 12°C 53% 30.24 in
(1024 mb)
NE 8.1 mph
(NE 13 kph)
- 10SM
09:54
Partly Cloudy
70°F / 21°C 54°F / 12°C 57% 30.24 in
(1024 mb)
NE 15 mph
(NE 24 kph)
- 10SM
08:54
Partly Cloudy
66°F / 19°C 54°F / 12°C 64% 30.24 in
(1024 mb)
N 12.7 mph
(N 20 kph)
- 10SM
07:54
Partly Cloudy
63°F / 17°C 52°F / 11°C 68% 30.24 in
(1024 mb)
N 11.5 mph
(N 19 kph)
- 10SM
06:54
Partly Cloudy
57°F / 14°C 52°F / 11°C 82% 30.24 in
(1024 mb)
N 8.1 mph
(N 13 kph)
- 10SM
05:54
Partly Cloudy
55°F / 13°C 50°F / 10°C 82% 30.24 in
(1024 mb)
N 4.6 mph
(N 7 kph)
- 10SM
04:54
Clear
55°F / 13°C 52°F / 11°C 88% 30.21 in
(1023 mb)
N 6.9 mph
(N 11 kph)
- 10SM
03:54
Clear
55°F / 13°C 52°F / 11°C 88% 30.21 in
(1023 mb)
NNW 3.5 mph
(NNW 6 kph)
- 10SM
02:54
Clear
55°F / 13°C 52°F / 11°C 88% 30.21 in
(1023 mb)
N 4.6 mph
(N 7 kph)
- 10SM
01:54
Clear
57°F / 14°C 52°F / 11°C 82% 30.21 in
(1023 mb)
NNW 5.8 mph
(NNW 9 kph)
- 10SM
00:54
Clear
57°F / 14°C 54°F / 12°C 88% 30.24 in
(1024 mb)
N 6.9 mph
(N 11 kph)
- 10SM
Time Weather Temperature Dewpoint Humidity Pressure Winds Precip Visibility


Weather for websites

WeatherForYou.com, LLC is not responsible for any damages or problems caused by this service. Current weather conditions are obtained from the closest station including government and personal stations which may have varying degrees of accuracy. Weather forecasts are derived from the NOAA NDFD. Like all things, this site belongs to Jesus Christ... He just trusts me to maintain it. If you have any questions or comments email webmaster@weatherforyou.com

Copyright © 2014, WeatherForYou.com LLC. All rights reserved.